When you browse on this site, cookies collect data to enhance your experience and personalize the content and advertising you see.
Visit our Privacy Policy to learn more. By continuing to use the site, you agree to this use of cookies and data.
  • In Romania
  • List of Countries
  • For 7 days
  • Water Temperature
  • Satellite Maps
  • Weather Map
  • Weather Widgets
  • user-avatar
    Login

    Hourly Weather Dolany

    Today, 22 February, Friday

    Time Temperature Precipitation Wind Pressure Humidity
    00:00 +4°C° 0.5 mm 4 mps 734 mmHg 90%
    01:00 +3°C° 0 mm 3 mps 734 mmHg 90%
    02:00 +3°C° 0.3 mm 3 mps 734 mmHg 91%
    03:00 +3°C° 0.3 mm 3 mps 734 mmHg 91%
    04:00 +3°C° 0.3 mm 4 mps 734 mmHg 91%
    05:00 +3°C° 0.7 mm 4 mps 734 mmHg 91%
    06:00 +1°C° 0.7 mm 5 mps 735 mmHg 90%
    07:00 +1°C° 0.7 mm 5 mps 736 mmHg 90%
    08:00 -1°C° 0.4 mm 6 mps 737 mmHg 86%
    09:00 -3°C° 0.4 mm 6 mps 738 mmHg 82%
    10:00 -4°C° 0.4 mm 6 mps 739 mmHg 78%
    11:00 -4°C° 0 mm 6 mps 740 mmHg 71%
    12:00 -3°C° 0 mm 6 mps 741 mmHg 63%
    13:00 -3°C° 0 mm 6 mps 742 mmHg 55%
    14:00 -4°C° 0 mm 6 mps 743 mmHg 53%
    15:00 -4°C° 0 mm 5 mps 743 mmHg 51%
    16:00 -5°C° 0 mm 5 mps 744 mmHg 50%
    17:00 -5°C° 0 mm 5 mps 745 mmHg 52%
    18:00 -5°C° 0 mm 4 mps 745 mmHg 55%
    19:00 -7°C° 0 mm 4 mps 746 mmHg 57%
    20:00 -7°C° 0 mm 4 mps 747 mmHg 54%
    21:00 -7°C° 0 mm 4 mps 748 mmHg 52%
    22:00 -7°C° 0 mm 4 mps 748 mmHg 49%
    23:00 -7°C° 0 mm 4 mps 749 mmHg 48%

    Tomorrow, 23 February, Saturday

    Time Temperature Precipitation Wind Pressure Humidity
    00:00 -7°C° 0 mm 4 mps 749 mmHg 46%
    01:00 -6°C° 0 mm 3 mps 749 mmHg 45%
    02:00 -7°C° 0 mm 3 mps 749 mmHg 46%
    03:00 -7°C° 0 mm 3 mps 749 mmHg 47%
    04:00 -7°C° 0 mm 3 mps 749 mmHg 49%
    05:00 -6°C° 0 mm 2 mps 750 mmHg 50%
    06:00 -6°C° 0 mm 2 mps 750 mmHg 52%
    07:00 -6°C° 0 mm 2 mps 750 mmHg 53%
    08:00 -6°C° 0 mm 2 mps 750 mmHg 50%
    09:00 -6°C° 0 mm 3 mps 750 mmHg 47%
    10:00 -5°C° 0 mm 3 mps 751 mmHg 45%
    11:00 -5°C° 0 mm 3 mps 751 mmHg 42%
    12:00 -4°C° 0 mm 3 mps 751 mmHg 40%
    13:00 -2°C° 0 mm 3 mps 750 mmHg 37%
    14:00 -2°C° 0 mm 2 mps 750 mmHg 38%
    15:00 -2°C° 0 mm 2 mps 750 mmHg 38%
    16:00 -2°C° 0 mm 2 mps 750 mmHg 39%
    17:00 -3°C° 0 mm 2 mps 750 mmHg 43%
    18:00 -2°C° 0 mm 1 mps 750 mmHg 47%
    19:00 -3°C° 0 mm 1 mps 750 mmHg 51%
    20:00 -3°C° 0 mm 1 mps 750 mmHg 52%
    21:00 -3°C° 0 mm 1 mps 750 mmHg 53%
    22:00 -3°C° 0 mm 1 mps 750 mmHg 54%
    23:00 -3°C° 0 mm 1 mps 750 mmHg 53%

    Day after tomorrow, 24 February, Sunday

    Time Temperature Precipitation Wind Pressure Humidity
    00:00 -3°C° 0 mm 1 mps 750 mmHg 53%
    01:00 -3°C° 0 mm 1 mps 750 mmHg 53%
    02:00 -3°C° 0 mm 1 mps 749 mmHg 52%
    03:00 -3°C° 0 mm 1 mps 749 mmHg 50%
    04:00 -4°C° 0 mm 0 mps 749 mmHg 49%
    05:00 -4°C° 0 mm 0 mps 749 mmHg 48%
    06:00 -3°C° 0 mm 0 mps 749 mmHg 46%
    07:00 -3°C° 0 mm 0 mps 749 mmHg 44%
    08:00 -1°C° 0 mm 1 mps 749 mmHg 40%
    09:00 +1°C° 0 mm 1 mps 749 mmHg 35%
    10:00 +2°C° 0 mm 1 mps 749 mmHg 30%
    11:00 +3°C° 0 mm 1 mps 749 mmHg 29%
    12:00 +4°C° 0 mm 1 mps 749 mmHg 28%
    13:00 +4°C° 0 mm 2 mps 748 mmHg 27%
    14:00 +5°C° 0 mm 1 mps 748 mmHg 31%
    15:00 +5°C° 0 mm 1 mps 748 mmHg 34%
    16:00 +4°C° 0 mm 1 mps 748 mmHg 38%
    17:00 +3°C° 0 mm 1 mps 748 mmHg 40%
    18:00 +2°C° 0 mm 1 mps 748 mmHg 42%
    19:00 +1°C° 0 mm 1 mps 748 mmHg 44%
    20:00 +1°C° 0 mm 1 mps 748 mmHg 44%
    21:00 +1°C° 0 mm 1 mps 748 mmHg 44%
    22:00 -1°C° 0 mm 2 mps 748 mmHg 44%
    23:00 -1°C° 0 mm 2 mps 748 mmHg 45%

    25 February, Monday

    Time Temperature Precipitation Wind Pressure Humidity
    00:00 -1°C° 0 mm 2 mps 748 mmHg 46%
    01:00 -2°C° 0 mm 2 mps 748 mmHg 47%
    02:00 -2°C° 0 mm 2 mps 748 mmHg 48%
    03:00 -2°C° 0 mm 2 mps 748 mmHg 50%
    04:00 -2°C° 0 mm 2 mps 747 mmHg 51%
    05:00 -2°C° 0 mm 2 mps 747 mmHg 53%
    06:00 -2°C° 0 mm 2 mps 747 mmHg 54%
    07:00 -2°C° 0 mm 2 mps 747 mmHg 56%
    08:00 +1°C° 0 mm 2 mps 747 mmHg 54%
    09:00 +1°C° 0 mm 3 mps 747 mmHg 52%
    10:00 +3°C° 0 mm 3 mps 747 mmHg 49%
    11:00 +4°C° 0 mm 3 mps 747 mmHg 51%
    12:00 +5°C° 0 mm 3 mps 747 mmHg 53%
    13:00 +5°C° 0 mm 3 mps 747 mmHg 54%
    14:00 +5°C° 0 mm 3 mps 746 mmHg 59%
    15:00 +6°C° 0 mm 2 mps 746 mmHg 64%
    16:00 +5°C° 0 mm 2 mps 746 mmHg 69%
    17:00 +4°C° 0 mm 2 mps 746 mmHg 74%
    18:00 +4°C° 0 mm 1 mps 746 mmHg 80%
    19:00 +3°C° 0 mm 1 mps 746 mmHg 85%
    20:00 +2°C° 0 mm 1 mps 746 mmHg 87%
    21:00 +2°C° 0 mm 1 mps 746 mmHg 88%
    22:00 +2°C° 0 mm 1 mps 746 mmHg 90%
    23:00 +2°C° 0 mm 1 mps 746 mmHg 90%

    26 February, Tuesday

    Time Temperature Precipitation Wind Pressure Humidity
    00:00 +1°C° 0 mm 2 mps 745 mmHg 91%
    01:00 +1°C° 0 mm 2 mps 745 mmHg 91%
    02:00 +1°C° 0 mm 2 mps 744 mmHg 91%
    03:00 +1°C° 0 mm 2 mps 744 mmHg 91%
    04:00 +1°C° 0 mm 2 mps 743 mmHg 91%
    05:00 +1°C° 0 mm 2 mps 743 mmHg 91%
    06:00 0°C° 0 mm 3 mps 742 mmHg 90%
    07:00 0°C° 0 mm 3 mps 742 mmHg 90%
    08:00 +1°C° 0 mm 3 mps 742 mmHg 83%
    09:00 +1°C° 0 mm 4 mps 741 mmHg 77%
    10:00 +3°C° 0 mm 4 mps 741 mmHg 70%
    11:00 +3°C° 0.2 mm 4 mps 741 mmHg 74%
    12:00 +3°C° 0.2 mm 4 mps 740 mmHg 78%
    13:00 +1°C° 0.2 mm 4 mps 740 mmHg 81%
    14:00 +3°C° 0 mm 3 mps 740 mmHg 82%
    15:00 +3°C° 0 mm 3 mps 740 mmHg 82%
    16:00 +3°C° 0 mm 3 mps 740 mmHg 82%
    17:00 +2°C° 0 mm 3 mps 740 mmHg 85%
    18:00 +2°C° 0 mm 3 mps 740 mmHg 88%
    19:00 +1°C° 0 mm 3 mps 740 mmHg 91%
    20:00 +1°C° 0 mm 3 mps 740 mmHg 92%
    21:00 0°C° 0 mm 3 mps 740 mmHg 92%
    22:00 0°C° 0 mm 3 mps 740 mmHg 92%
    23:00 0°C° 0 mm 3 mps 741 mmHg 92%

    27 February, Wednesday

    Time Temperature Precipitation Wind Pressure Humidity
    00:00 -1°C° 0 mm 2 mps 741 mmHg 91%
    01:00 -1°C° 0 mm 2 mps 741 mmHg 91%
    02:00 -1°C° 0 mm 2 mps 741 mmHg 91%
    03:00 -2°C° 0 mm 2 mps 741 mmHg 91%
    04:00 -2°C° 0 mm 2 mps 741 mmHg 91%
    05:00 0°C° 0 mm 1 mps 741 mmHg 91%
    06:00 0°C° 0 mm 1 mps 741 mmHg 92%
    07:00 0°C° 0 mm 1 mps 741 mmHg 92%
    08:00 +1°C° 0 mm 1 mps 741 mmHg 84%
    09:00 +3°C° 0 mm 1 mps 741 mmHg 77%
    10:00 +3°C° 0 mm 2 mps 742 mmHg 69%
    11:00 +4°C° 0 mm 2 mps 741 mmHg 64%
    12:00 +5°C° 0 mm 2 mps 741 mmHg 59%
    13:00 +6°C° 0 mm 2 mps 741 mmHg 55%
    14:00 +6°C° 0 mm 2 mps 740 mmHg 57%
    15:00 +6°C° 0 mm 2 mps 740 mmHg 59%
    16:00 +6°C° 0 mm 2 mps 739 mmHg 61%
    17:00 +4°C° 0 mm 2 mps 739 mmHg 65%
    18:00 +3°C° 0 mm 2 mps 739 mmHg 70%
    19:00 +2°C° 0 mm 2 mps 738 mmHg 74%
    20:00 +2°C° 0 mm 2 mps 738 mmHg 72%
    21:00 +1°C° 0 mm 3 mps 737 mmHg 69%
    22:00 +1°C° 0 mm 3 mps 737 mmHg 67%
    23:00 +1°C° 0 mm 3 mps 736 mmHg 64%
    Show more